DW4221 Weather Reports


Display with metric or nautical units.
time (UTC)temp
F
wind
direction
speed
MPH
gust
MPH
rain 1hr
in
rain 24hr
in
rain mn
in
humidity
%
barometer
mb
20260502220055 62 238 3.0 11.0 0.00 0.00 0.00 35 1008.9
20260502214554 61 241 4.0 13.0 0.00 0.00 0.00 37 1009.4
20260502213051 60 201 2.0 10.0 0.00 0.00 0.00 37 1009.4
20260502211551 59 214 5.0 11.0 0.00 0.00 0.00 38 1009.5
20260502210054 59 261 3.0 14.0 0.00 0.00 0.00 36 1009.9
20260502204609 59 245 3.0 10.0 0.00 0.00 0.00 37 1010.1
20260502203113 61 242 3.0 9.0 0.00 0.00 0.00 35 1010.2
20260502201552 60 236 2.0 11.0 0.00 0.00 0.00 36 1010.8
20260502200052 60 234 3.0 13.0 0.00 0.00 0.00 36 1011.0
20260502194554 59 288 4.0 11.0 0.00 0.00 0.00 35 1011.2
20260502193051 60 250 3.0 9.0 0.00 0.00 0.00 35 1011.4
20260502191558 59 284 2.0 9.0 0.00 0.00 0.00 37 1011.8
20260502190054 58 210 4.0 13.0 0.00 0.00 0.00 38 1012.0
20260502184600 57 327 3.0 13.0 0.00 0.00 0.00 38 1012.1
20260502183052 57 231 2.0 10.0 0.00 0.00 0.00 38 1012.5
20260502181611 57 0 3.0 12.0 0.00 0.00 0.00 35 1012.8
20260502163104 54 279 1.0 10.0 0.00 0.00 0.00 36 1014.6
20260502161559 52 182 2.0 11.0 0.00 0.00 0.00 39 1014.8
20260502151606 49 198 1.0 8.0 0.00 0.00 0.00 41 1015.7
20260502140105 43 200 1.0 4.0 0.00 0.00 0.00 58 1016.7
20260502123053 32 0 0.0 0.0 0.00 0.00 0.00 89 1017.1
20260502121555 28 0 0.0 0.0 0.00 0.00 0.00 92 1017.1
20260502120106 26 0 0.0 0.0 0.00 0.00 0.00 90 1017.3
20260502114559 26 0 0.0 0.0 0.00 0.00 0.00 93 1017.3
20260502113053 23 0 0.0 0.0 0.00 0.00 0.00 93 1017.4
20260502111551 23 0 0.0 0.0 0.00 0.00 0.00 92 1017.1
20260502110058 23 0 0.0 0.0 0.00 0.00 0.00 91 1017.2
20260502104550 23 0 0.0 0.0 0.00 0.00 0.00 91 1017.2
20260502103059 24 0 0.0 0.0 0.00 0.00 0.00 91 1017.1
20260502101552 24 0 0.0 0.0 0.00 0.00 0.00 92 1017.4
20260502080104 26 0 0.0 0.0 0.00 0.00 0.00 86 1017.5
20260502070056 27 0 0.0 0.0 0.00 0.00 0.00 85 1017.9
20260502064602 27 0 0.0 0.0 0.00 0.00 0.00 84 1018.1
20260502063058 28 0 0.0 0.0 0.00 0.00 0.00 84 1018.3
20260502061551 28 0 0.0 0.0 0.00 0.00 0.00 83 1018.4
20260502060054 28 0 0.0 0.0 0.00 0.00 0.00 82 1018.4
20260502054559 28 0 0.0 0.0 0.00 0.00 0.00 81 1018.6
20260502053056 29 0 0.0 0.0 0.00 0.00 0.00 80 1018.4
20260502051552 29 0 0.0 0.0 0.00 0.00 0.00 80 1018.4
20260502050051 30 0 0.0 0.0 0.00 0.00 0.00 79 1018.3
20260502044551 30 0 0.0 0.0 0.00 0.00 0.00 78 1018.2
20260502043056 30 0 0.0 0.0 0.00 0.00 0.00 77 1018.3
20260502041552 31 0 0.0 0.0 0.00 0.00 0.00 73 1018.3
20260502040104 32 0 0.0 0.0 0.00 0.00 0.00 73 1018.4
20260502034554 33 0 0.0 0.0 0.00 0.00 0.00 70 1018.2
20260502033054 33 0 0.0 0.0 0.00 0.00 0.00 70 1018.3
20260502031555 34 0 0.0 0.0 0.00 0.00 0.00 67 1018.4
20260502030051 35 0 0.0 3.0 0.00 0.00 0.00 66 1018.2
20260502024550 36 0 0.0 0.0 0.00 0.00 0.00 61 1018.2
20260502023054 38 0 0.0 0.0 0.00 0.00 0.00 58 1018.2
20260502021553 39 0 0.0 0.0 0.00 0.00 0.00 55 1018.2
20260502020108 41 0 0.0 0.0 0.00 0.00 0.00 50 1018.1
20260502014554 42 0 0.0 0.0 0.00 0.00 0.00 48 1018.1
20260502013052 44 0 0.0 2.0 0.00 0.00 0.00 43 1017.9
20260502011554 45 355 1.0 3.0 0.00 0.00 0.00 41 1017.9
20260502010055 46 12 0.0 5.0 0.00 0.00 0.00 38 1017.8
20260502004556 47 18 1.0 5.0 0.00 0.00 0.00 38 1017.6
20260502003132 48 11 2.0 5.0 0.00 0.00 0.00 37 1017.7
20260502001632 49 32 4.0 11.0 0.00 0.00 0.00 36 1017.6
20260502000055 49 43 3.0 11.0 0.00 0.00 0.00 36 1017.7
20260501234600 49 284 1.0 10.0 0.00 0.00 0.00 36 1017.6
20260501233058 51 129 2.0 8.0 0.00 0.00 0.00 36 1017.5
20260501231554 50 22 5.0 12.0 0.00 0.00 0.00 36 1017.9
20260501230056 50 14 1.0 9.0 0.00 0.00 0.00 37 1017.7
20260501224559 50 344 2.0 12.0 0.00 0.00 0.00 36 1017.7
20260501223054 49 21 2.0 13.0 0.00 0.00 0.00 37 1017.8
20260501221553 49 294 2.0 9.0 0.00 0.00 0.00 37 1017.7